Regional Weather Roundup
Issued by NWS

Home | Current Version | Previous Version | Text Only | Print | Product List | Glossary On
Versions: 1 2 3 4 5 6 7 8 9 10 11 12 13 14 15 16 17 18 19 20 21 22 23 24 25 26 27 28 29 30 31 32 33 34 35 36 37 38 39 40 41 42 43 44 45 46 47 48 49 50
000
ASUS44 KMEG 251410
RWRTN
TENNESSEE HOURLY STATE WEATHER ROUNDUP
NATIONAL WEATHER SERVICE MEMPHIS TN
900 AM CDT SAT APR 25 2015

TNZ002-004-019-021-049-052-054-088>092-251500-
WEST TENNESSEE

CITY           SKY/WX    TMP DP  RH WIND       PRES   REMARKS
MEMPHIS INTL   CLOUDY    65  61  87 SW16G28   29.66F
NWS MEMPHIS      N/A     64 N/A N/A MISG        N/A
JACKSON        CLOUDY    65  60  84 S15       29.66F
DYERSBURG      PTSUNNY   66  52  59 SW7G17    29.65S
UNION CITY     MOSUNNY   64  32  29 S10       29.61F
PARIS          MOSUNNY   63  57  82 S12       29.66F
LEXINGTON      MOSUNNY   63  61  94 S10       29.68S
SAVANNAH       MOSUNNY   64  32  29 S13       29.70F
$$

TNZ008-025-027-028-033-062-065-066-251500-
NORTH MIDDLE TENNESSEE

CITY           SKY/WX    TMP DP  RH WIND       PRES   REMARKS
NASHVILLE      CLOUDY    63  59  87 S3        29.71S
CLARKSVILLE    CLOUDY    62  58  86 S8        29.68S
SMYRNA         CLOUDY    63  59  87 SW6       29.71F
COOKEVILLE     MOSUNNY   63  57  82 S7        29.72F
CROSSVILLE     CLOUDY    56  53  90 S5        29.77R
$$

TNZ061-075-076-078-094-096-097-251500-
SOUTH MIDDLE TENNESSEE

CITY           SKY/WX    TMP DP  RH WIND       PRES   REMARKS
FAYETTEVILLE   SUNNY     61  59  94 S10       29.73R
TULLAHOMA      SUNNY     63  57  82 S9        29.73R
WINCHESTER     SUNNY     64  61  88 SE9       29.74R
MCMINNVILLE    MOSUNNY   63  63 100 NE6       29.72S
COLUMBIA       SUNNY     66  32  28 SW15      29.68S
SHELBYVILLE    MOSUNNY   64  63  94 SW6       29.72R
$$

TNZ017-018-042-046-047-251500-
NORTHEAST TENNESSEE

CITY           SKY/WX    TMP DP  RH WIND       PRES   REMARKS
TRI CITIES     CLOUDY    52  40  63 E5        29.78F
ELIZABETHTON   LGT RAIN  48  43  81 NE8       29.78F
$$

TNZ012-013-036-069-073-074-251500-
CENTRAL EAST TENNESSEE

CITY           SKY/WX    TMP DP  RH WIND       PRES   REMARKS
KNOXVILLE      CLOUDY    54  50  86 N9        29.75R
OAK RIDGE      CLOUDY    55  52  89 SE3       29.79R
GATLINBURG     SUNNY     52  46  82 N5        29.72F
MORRISTOWN     PTSUNNY   52  48  87 NE7       29.77S
$$

TNZ083-085-099-251500-
SOUTHEAST TENNESSEE

CITY           SKY/WX    TMP DP  RH WIND       PRES   REMARKS
CHATTANOOGA    CLOUDY    57  55  93 S6        29.78S FOG
$$

SKY/WX REPORTED AS FAIR MEANS FEW OR NO CLOUDS BELOW
12 THOUSAND FEET.




USA.gov is the U.S. government's official web portal to all federal, state and local government web resources and services.